Location: Casilda
(33.0440°S, 61.1680°W)
Time: 07:01:44
(UTC-03:00)

ISS - Pass Details

Date: 24 September 2021
Orbit: 417 x 422 km, 51.6° (Epoch: 28 September)

Event Time Altitude Azimuth Distance (km) Brightness Sun altitude
Exits shadow 04:16:18 11° 102° (ESE) 1,467 -0.2 -32.3°
Drops below altitude 10° 04:16:28 10° 104° (ESE) 1,522 -0.1 -32.3°
Sets 04:18:54 0° 120° (ESE) 2,401 1.2 -31.8°
